Location: Cedar Brake
(32.2526°N, 97.8459°W)
Time: 08:53:55
(UTC+00:00)

NOSS 3-4 (C) - Pass Details

Date: 22 April 2026
Orbit: 773 x 1438 km, 63.4° (Epoch: 26 December)

Event Time Altitude Azimuth Distance (km) Brightness Sun altitude
Rises 01:23:17 0° 221° (SW) 3,247 6.6 -4.5°
Reaches altitude 10° 01:25:43 10° 226° (SW) 2,310 5.9 -5.0°
Maximum altitude 01:30:47 53° 303° (WNW) 959 4.0 -6.0°
Drops below altitude 10° 01:36:09 10° 20° (NNE) 2,436 5.6 -7.1°
Sets 01:38:47 0° 25° (NNE) 3,443 6.3 -7.6°
